Regional Weather Roundup
Issued by NWS

Home | Current Version | Previous Version | Text Only | Print | Product List | Glossary On
Versions: 1 2 3 4 5 6 7 8 9 10 11 12 13 14 15 16 17 18 19 20 21 22 23 24 25 26 27 28 29 30 31 32 33 34 35 36 37 38 39 40 41 42 43 44 45 46 47 48 49 50
000
ASHW40 PHFO 231110
RWRHI

WEATHER ROUNDUP FOR HAWAII
NATIONAL WEATHER SERVICE HONOLULU HI
100 AM HST THU OCT 23 2014

THIS IS AN AUTOMATED REPORT THAT HAS NOT BEEN QUALITY CONTROLLED.

NOTE..."FAIR" INDICATES FEW OR NO CLOUDS BELOW 12,000 FEET WITH NO
SIGNIFICANT WEATHER AND/OR OBSTRUCTIONS TO VISIBILITY.

* - THESE SITES REPORT LIMITED FIELDS

HIZ001>004-231200-
KAUAI-NIIHAU-

CITY           SKY/WX    TMP DP  RH WIND       PRES   REMARKS
LIHUE APT      CLOUDY    78  72  81 E12       30.01F
PORT ALLEN*      N/A     77 N/A N/A NE7         N/A
POIPU*           N/A     77 N/A N/A NE6         N/A
PRINCEVILLE*     N/A     73 N/A N/A MISG        N/A
KOKOLE POINT*  NOT AVBL
MOLOAA DAIRY*  NOT AVBL
WAIMEA HTS*    NOT AVBL
PUU OPAE*      NOT AVBL
PUU LUA*       NOT AVBL
MAKAHA RIDGE*  NOT AVBL
$$

HIZ005>011-231200-
OAHU-

CITY           SKY/WX    TMP DP  RH WIND       PRES   REMARKS
HONOLULU       MOCLDY    76  74  93 CALM      30.00S
KALAELOA       PTCLDY    73  72  96 CALM      30.01F
KANEOHE MCB    PTCLDY    78  72  81 VRB6      30.01S
WHEELER FIELD  PTCLDY    72  70  94 CALM      30.02F
BELLOWS*       NOT AVBL
KAHUKU*        NOT AVBL
WHEELER*       NOT AVBL
WAIANAE HARBOR NOT AVBL
DILLINGHAM*      N/A     72  72 100 NE1         N/A
KAHUKU TRN*      N/A     73  72  94 E7G15       N/A
KAWAILOA*        N/A     72  70  94 E3G12       N/A
KII*             N/A     79  73  83 E13         N/A
MAKUA RANGE*     N/A     75  72  88 SE3         N/A
OAHU FOREST NW NOT AVBL
SCHOFIELD BRK*   N/A     72  70  94 MISG        N/A
SCHOFIELD S*   NOT AVBL
WAIANAE VLY*   NOT AVBL
KUAOKALA*      NOT AVBL
HONOULIUULI*   NOT AVBL
MOKUOLOE IS*   NOT AVBL
PALEHUA*       NOT AVBL
WAIAWA PHB*    NOT AVBL
$$

HIZ012>013-231200-
MOLOKAI-

CITY           SKY/WX    TMP DP  RH WIND       PRES   REMARKS
MOLOKAI AIRPT  CLOUDY    74  74 100 E3        30.01F
KALAUPAPA      NOT AVBL
MAKAPULAPAI*   NOT AVBL
MOLOKAI 1*     NOT AVBL
PUU ALII*      NOT AVBL
$$

HIZ016-231200-
KAHOOLAWE-

CITY           SKY/WX    TMP DP  RH WIND       PRES   REMARKS
KAHOOLAWE*     NOT AVBL
HAKIOAWA*      NOT AVBL
HONOKANAIA*      N/A     76  70  82 N6G16     30.01F
KANELOA*         N/A     75  70  83 NE15G24   29.24F
KEALIALALO*    NOT AVBL
LUA MAKIKA*    NOT AVBL
$$

HIZ014>015-231200-
LANAI-

CITY           SKY/WX    TMP DP  RH WIND       PRES   REMARKS
LANAI CITY     NOT AVBL
LANAI 1*       NOT AVBL
$$

HIZ017>028-231200-
MAUI-

CITY           SKY/WX    TMP DP  RH WIND       PRES   REMARKS
KAHULUI        CLEAR     73  70  90 CALM      30.01S
KAPALUA-W MAUI NOT AVBL
HANA AIRPORT   CLOUDY    73  72  94 CALM      30.05S
HANA*          NOT AVBL
HALEAKALA SUMM   N/A     45  41  87 NE15        N/A
MAALAEA BAY*   NOT AVBL
HALEAKALA*     NOT AVBL
KAUPO GAP*     NOT AVBL
KULA 1*          N/A     54  47  77 E6          N/A
$$

HIZ023>026-231200-
BIG ISLAND OF HAWAII COAST AND LOWER SLOPES-

CITY           SKY/WX    TMP DP  RH WIND       PRES   REMARKS
KAILUA KONA    MOCLDY    78  70  76 NE5       29.98S
HILO           CLOUDY    74  71  91 SW6       30.01F
HONOKAA*       NOT AVBL
KAWAIHAE MWT*  NOT AVBL
KAWAIHAE*        N/A     81 N/A N/A NE3         N/A
SOUTH POINT*   NOT AVBL
UPOLU AIRPORT* NOT AVBL
KAMUELA*       CLOUDY    66  64  94 NE7       30.13S
HAKALAU*         N/A     52  51  96 CALM        N/A
KALOKO-HONOKO* NOT AVBL
PALI 2*          N/A     66 -11   4 VRB6G14     N/A
KEALAKOMO*       N/A     79  68  69 NE10G18     N/A
KAUPULEHU*     NOT AVBL
KAPAPALA*        N/A     68  67  96 CALM        N/A
LOWER KAHUKU*  NOT AVBL
PUHE CS*       NOT AVBL
PUHO CS*       NOT AVBL
PTA KEAMUKU*     N/A     64  61  88 E6          N/A
WAIKOLOA*      NOT AVBL
$$

HIZ027>028-231200-
BIG ISLAND OF HAWAII INTERIOR AND SUMMMITS-

CITY           SKY/WX    TMP DP  RH WIND       PRES   REMARKS
BRADSHAW FIELD PTCLDY    55  53  91 SE2       30.36F
MK VISITOR CEN NOT AVBL
MAUNA KEA*       N/A     36  21  55 CALM        N/A
MAUNA LOA*       N/A    N/A N/A N/A MISG        N/A
MAUNA LOA 1*   NOT AVBL
PTA KIPUKA*      N/A     57  57 100 E3          N/A
PTA RANGE 17*    N/A     66  66 100 S1          N/A
PTA WEST*        N/A    N/A N/A N/A SE5         N/A
NENE CABIN*    NOT AVBL
AHUMOA*        NOT AVBL
PTA PORTABLE*  NOT AVBL
PUU MALI*      NOT AVBL
$$

HIC003-231200-
NORTHWEST ISLANDS-

CITY           SKY/WX    TMP DP  RH WIND       PRES   REMARKS
MIDWAY ISLAND  PTCLDY    81  79  94 S10       29.96R
MIDWAY NOS*    NOT AVBL
FRENCH FRIGATE NOT AVBL
$$

PHZ110>124-180-231200-
BUOY REPORTS

STATION/POSITION TIME  TEMP    WIND        PRES    WAVE   SWELL
                       AIR SEA DIR/SP/G            HT/PER HT/DIR
                 (UTC) (F)     (DEG/KT/KT) (MB)    (FT/S) (FT/D)
BUOY 51001       NOT AVBL
BUOY 51101       NOT AVBL
BUOY 51100       1100   79      80/ 14     1017.0F
BUOY 51003       1000   81 82  120/ 10/ 14 1015.6F   6/11   5
BUOY 51004       1028   79 81   70/ 12/ 14 1014.4F   6/11   5/350
BARBERS PT BUOY  NOT AVBL
WAIMEA BAY BUOY  1100      82                N/A     4/11   2/350
KAILUA BAY BUOY  1100      82                N/A     5/10   2/ 10
LANAI BUOY       1100      82                N/A     3/12   2/200
BARBERS PT 2     1100      82                N/A     4/12   2/190
PAUWELA MAUI     1100      81                N/A     5/10   2
HILO             1100      81                N/A     6/11   3/360
KANEOHE BAY BUOY NOT AVBL
HANALEI KAUAI    NOT AVBL
KAHULUI HARBOR   1100   78 81  360/ 12/ 15 1015.9F
HONOLULU HARBOR  1100   77        CALM     1016.3F
KILO NALU        NOT AVBL
HILO HARBOR      1100   74     250/  7/  9 1015.9F
MOKUOLOE         1100   78     100/  7/ 10   N/A
NAWILIWILI       1100      82                N/A
WHOTS BUOY       NOT AVBL
BUOY 51028       NOT AVBL
$$

......................KEY........................................
  SKY/WX - SKY CONDITIONS/PRESENT WEATHER
  TMP    - TEMPERATURE IN FAHRENHEIT
  DWPT   - DEWPOINT IN FAHRENHEIT
  RH     - RELATIVE HUMIDITY IN PERCENT
  WIND   - DIRECTION AND SPEED /MPH FOR ISLANDS...KTS FOR BUOYS/
  PRES   - MEAN SEA LEVEL PRESSURE IN INCHES OF HG
  VSB    - VISIBILITY IN MILES
  HX     - HEAT INDEX
  WCI    - WIND CHILL INDEX
  VRB    - VARIABLE WIND DIRECTION
  N/A    - NOT AVAILABLE



USA.gov is the U.S. government's official web portal to all federal, state and local government web resources and services.